Regional Weather Roundup
Issued by NWS

Home | Current Version | Previous Version | Graphics & Text | Print | Product List | Glossary On
Versions: 1 2 3 4 5 6 7 8 9 10 11 12 13 14 15 16 17 18 19 20 21 22 23 24 25 26 27 28
000
ASUS45 KBOU 241406
RWRCO

WEATHER ROUNDUP FOR COLORADO
NATIONAL WEATHER SERVICE DENVER/BOULDER CO
800 AM MDT THU APR 24 2014

NOTE: "FAIR" INDICATES FEW OR NO CLOUDS BELOW 12000 FEET WITH NO
SIGNIFICANT WEATHER AND/OR OBSTRUCTIONS TO VISIBILITY.

COZ001>005-013-030-031-241500-
...NORTHWEST COLORADO...

CITY           SKY/WX    TMP DP  RH WIND       PRES   REMARKS
CRAIG          SUNNY     26  21  81 CALM      30.15R
HAYDEN         SUNNY     30  19  64 E6        30.16R WCI  24
MEEKER         SUNNY     32  16  51 NE3       30.16R
MOUNT WERNER   SUNNY     21  10  63 W14       30.13R WCI   8
STEAMBOAT SPGS SUNNY     29  16  57 CALM      30.14S
WALDEN         SUNNY     30  12  47 S16G26    30.08R WCI  19
$$

COZ006>008-011-241500-
...WEST CENTRAL VALLEYS...

CITY           SKY/WX    TMP DP  RH WIND       PRES   REMARKS
GRAND JUNCTION MOSUNNY   38  14  37 S6        30.16R
MONTROSE       MOSUNNY   38  15  39 SE10      30.19R
EAGLE          SUNNY     28  18  64 CALM      30.21R
RIFLE          SUNNY     33  16  49 CALM      30.18R
DELTA          NOT AVBL
NUCLA          NOT AVBL
$$

COZ017>023-064>068-241500-
...SOUTHWEST COLORADO...

CITY           SKY/WX    TMP DP  RH WIND       PRES   REMARKS
DURANGO        SUNNY     32  11  41 CALM      30.14R
CORTEZ         SUNNY     33  13  43 CALM      30.15R
PAGOSA SPRINGS SUNNY     34  10  37 CALM      30.17R
TELLURIDE      MOSUNNY   28  10  47 E3        30.18R
WOLF CREEK PAS SUNNY     21   5  49 SW13      30.17R WCI   9
$$

COZ009-010-012-014-032>034-037-058>063-241500-
...CENTRAL COLORADO...

CITY           SKY/WX    TMP DP  RH WIND       PRES   REMARKS
ASPEN          MOSUNNY   30  13  49 SE3       30.15R
BUENA VISTA    MOSUNNY   37   5  26 N15G21    30.07S
COPPER MTN     MOSUNNY   18   5  57 W12G18    30.14R WCI   5
BERTHOUD PASS  PTSUNNY    7  -4  61 NW33G39   30.06R WCI -18
COTTONWOOD PAS MOSUNNY   34 -13  13 W9G29     30.09R WCI  26
GUNNISON       SUNNY     28  12  50 N5        30.19R WCI  23
KREMMLING      SUNNY     32  16  51 SE3       30.17R
LEADVILLE      MOSUNNY   23   6  48 N7        30.12R WCI  15
MONARCH PASS   SUNNY     14   5  67 W43       30.19R WCI -10
SALIDA         MOSUNNY   37  11  33 N7        30.15S
SUNLIGHT       SUNNY     23  12  63 CALM      30.18R
WILKERSON PASS SUNNY     21   3  45 SW3       30.10R
$$

COZ069>075-241500-
...SAN LUIS VALLEY/SANGRE DE CRISTO MOUNTAINS...

CITY           SKY/WX    TMP DP  RH WIND       PRES   REMARKS
ALAMOSA        SUNNY     34  15  46 SW6       30.14R WCI  29
LA VETA PASS   SUNNY     27   7  43 SW12G25   30.10R WCI  16
SAGUACHE       SUNNY     36   7  30 N7        30.14R
$$

COZ035-036-038>040-241500-
...NORTHERN COLORADO FRONT RANGE...

CITY           SKY/WX    TMP DP  RH WIND       PRES   REMARKS
DENVER INTL AP SUNNY     40  21  46 SW8       30.02R
DMNS CITY PARK   N/A     41  25  53 S8        30.03S
AURORA         SUNNY     34  23  64 S6        30.03S WCI  29
FRONT RANGE AP MOSUNNY   41  27  56 W7        30.03
ERIE MUNI ARPT SUNNY     41  24  51 S7        30.02R
BOULDER MUN AP SUNNY     41  21  45 CALM      30.01S
CENTENNIAL     MOSUNNY   38  23  55 S6        30.02S
BROOMFIELD     MOSUNNY   39  27  60 SE7       30.02
FORT COLLINS   SUNNY     41  19  42 SW6       30.03R
LONGMONT       NOT AVBL
$$

COZ041-046-047-076>085-087-088-241500-
...PIKES PEAK/PALMER DIVIDE AND SOUTHERN FOOTHILLS...

CITY           SKY/WX    TMP DP  RH WIND       PRES   REMARKS
COLO. SPRINGS  MOSUNNY   41  24  51 W5        30.06R
A. F. ACADEMY  SUNNY     34  26  72 NE2       30.05R
ELLICOTT       NOT AVBL
FALCON         SUNNY     37  17  44 N6        30.06S
FORT CARSON    SUNNY     38  32  76 VRB1      30.05R
LIMON          SUNNY     40  20  44 NW15      30.03R
MONUMENT HILL  SUNNY     30  25  80 S3        30.03S
TRINIDAD       SUNNY     43  34  70 SW7       30.07R
$$

COZ042>045-048>051-090-091-241500-
...NORTHEAST COLORADO...

CITY           SKY/WX    TMP DP  RH WIND       PRES   REMARKS
GREELEY ARPT   SUNNY     45  18  33 N10       30.01R
AKRON          SUNNY     43  21  41 NW16      29.99R
BURLINGTON     SUNNY     48  18  30 NW25G31   29.98R
WRAY           MOSUNNY   49  20  31 NW22G29   29.96R
STERLING       NOT AVBL
HOLYOKE        NOT AVBL
FORT MORGAN    NOT AVBL
$$

COZ086-089-092>099-241500-
...SOUTHEAST COLORADO...

CITY           SKY/WX    TMP DP  RH WIND       PRES   REMARKS
PUEBLO         SUNNY     44  32  62 CALM      30.06R
LA JUNTA       SUNNY     47  33  58 W14       30.05R
LAMAR          SUNNY     47  28  47 N16       29.98R
SPRINGFIELD      N/A     45  35  68 NW22G30   30.00R
$$



USA.gov is the U.S. government's official web portal to all federal, state and local government web resources and services.